Location: Christianberg
(48.9086°N, 14.0209°E)
Time: 22:14:14
(UTC+00:00)

Cosmos 1408 - Pass Details

Date: 20 June 2021
Orbit: 466 x 492 km, 82.6° (Epoch: 04 August)

Event Time Altitude Azimuth Distance (km) Brightness Sun altitude
Exits shadow 00:19:14 27° 236° (SW) 976 3.6 -15.8°
Maximum altitude 00:20:41 39° 285° (WNW) 746 3.4 -15.7°
Drops below altitude 10° 00:24:13 10° 356° (N) 1,697 6.4 -15.5°
Sets 00:26:26 0° 4° (N) 2,586 7.8 -15.4°
